SXS68T LTBJ-LIMC

Flight info

Callsign SXS68T
Flight time N/A
Altitude 38000
Route RIKSO UN127 LMO UN128 FSK UL608 DISOR DCT LONTA UL608 DOLEV DCT PODOB DCT SONIK DCT ROTAR DCT ADOSA/N0457F390 DCT PEXUG
Aircraft B38M/M-SADE2E3GIJ4J7RW/LB1D1

Departure

Time 2026-04-30 21:33
Airport Adnan Menderes International Airport (LTBJ)

Arrival

Time N/A
Airport Milan Malpensa International Airport (LIMC)
Time Latitude Longitude Altitude Speed Heading
2026-04-30 20:57 38.29477 27.15180 401 ft 0 kts 77°
2026-04-30 21:21 38.29475 27.15171 400 ft 2 kts 77°
2026-04-30 21:22 38.29472 27.15151 400 ft 2 kts 77°
2026-04-30 21:22 38.29479 27.15091 400 ft 2 kts 142°
2026-04-30 21:23 38.29491 27.15083 400 ft 0 kts 164°
2026-04-30 21:23 38.29499 27.15081 400 ft 0 kts 167°
2026-04-30 21:23 38.29498 27.15081 400 ft 0 kts 167°
2026-04-30 21:25 38.29496 27.15082 400 ft 1 kts 167°
2026-04-30 21:25 38.29478 27.15087 400 ft 4 kts 165°
2026-04-30 21:26 38.29367 27.15124 400 ft 10 kts 165°
2026-04-30 21:26 38.29282 27.15149 401 ft 12 kts 167°
2026-04-30 21:27 38.29091 27.15206 403 ft 3 kts 166°
2026-04-30 21:27 38.29055 27.15217 403 ft 6 kts 166°
2026-04-30 21:27 38.29013 27.15258 403 ft 8 kts 88°
2026-04-30 21:28 38.28869 27.15342 403 ft 14 kts 168°
2026-04-30 21:28 38.28746 27.15377 402 ft 16 kts 166°
2026-04-30 21:28 38.28503 27.15449 400 ft 15 kts 167°
2026-04-30 21:29 38.28384 27.15486 398 ft 15 kts 166°
2026-04-30 21:29 38.27984 27.15607 385 ft 19 kts 167°
2026-04-30 21:30 38.27754 27.15701 377 ft 10 kts 98°
2026-04-30 21:31 38.27807 27.15992 377 ft 7 kts 76°
2026-04-30 21:31 38.27824 27.16082 379 ft 1 kts 76°
2026-04-30 21:32 38.27854 27.16111 380 ft 5 kts 348°
2026-04-30 21:32 38.28003 27.16067 384 ft 54 kts 346°
2026-04-30 21:32 38.28601 27.15886 400 ft 119 kts 345°
2026-04-30 21:32 38.29612 27.15584 445 ft 167 kts 346°
2026-04-30 21:33 38.30851 27.15186 1254 ft 165 kts 345°
2026-04-30 21:33 38.33586 27.14396 2385 ft 194 kts 346°
2026-04-30 21:33 38.35114 27.13935 2804 ft 213 kts 345°
2026-04-30 21:34 38.36772 27.13424 3322 ft 228 kts 345°
2026-04-30 21:34 38.40215 27.12370 4264 ft 262 kts 345°
2026-04-30 21:34 38.42205 27.11768 4939 ft 272 kts 345°
2026-04-30 21:35 38.44226 27.11161 5741 ft 276 kts 344°
2026-04-30 21:35 38.46329 27.10528 6568 ft 279 kts 343°
2026-04-30 21:35 38.48397 27.09903 7348 ft 282 kts 343°
2026-04-30 21:35 38.50507 27.09265 8131 ft 285 kts 343°
2026-04-30 21:36 38.52650 27.08617 8899 ft 289 kts 343°
2026-04-30 21:36 38.54891 27.07939 9671 ft 293 kts 343°
2026-04-30 21:37 38.61278 27.04619 11205 ft 316 kts 308°
2026-04-30 21:37 38.62540 27.02001 11607 ft 325 kts 292°
2026-04-30 21:37 38.63557 26.99042 11976 ft 339 kts 291°
2026-04-30 21:37 38.64638 26.95951 12324 ft 353 kts 292°
2026-04-30 21:38 38.65775 26.92779 12655 ft 366 kts 292°
2026-04-30 21:38 38.66912 26.89632 13309 ft 369 kts 292°
2026-04-30 21:38 38.68053 26.86468 13959 ft 371 kts 292°
2026-04-30 21:38 38.69186 26.83310 14561 ft 375 kts 292°
2026-04-30 21:39 38.70288 26.80229 15170 ft 379 kts 292°
2026-04-30 21:39 38.71384 26.77152 15807 ft 381 kts 292°
2026-04-30 21:39 38.72482 26.74065 16399 ft 384 kts 292°
2026-04-30 21:39 38.73595 26.70929 16982 ft 387 kts 292°
2026-04-30 21:40 38.74712 26.67783 17563 ft 389 kts 292°
2026-04-30 21:40 38.75854 26.64560 18134 ft 392 kts 292°
2026-04-30 21:40 38.76991 26.61350 18655 ft 396 kts 292°
2026-04-30 21:40 38.78126 26.58140 19228 ft 398 kts 292°
2026-04-30 21:41 38.79282 26.54870 19778 ft 401 kts 292°
2026-04-30 21:41 38.80451 26.51560 20295 ft 404 kts 292°
2026-04-30 21:41 38.81635 26.48300 20790 ft 407 kts 294°
2026-04-30 21:41 38.82996 26.45121 21336 ft 410 kts 300°
2026-04-30 21:42 38.84711 26.42191 21800 ft 417 kts 309°
2026-04-30 21:42 38.86755 26.39522 22267 ft 421 kts 314°
2026-04-30 21:42 38.88988 26.36959 22726 ft 426 kts 316°
2026-04-30 21:42 38.91268 26.34494 23219 ft 428 kts 316°
2026-04-30 21:43 38.93576 26.32052 23676 ft 431 kts 317°
2026-04-30 21:43 38.95920 26.29580 24122 ft 434 kts 317°
2026-04-30 21:43 38.98266 26.27095 24594 ft 435 kts 317°
2026-04-30 21:43 39.00648 26.24556 25057 ft 438 kts 316°
2026-04-30 21:44 39.03144 26.21873 25531 ft 440 kts 316°
2026-04-30 21:44 39.05510 26.19323 25995 ft 441 kts 316°
2026-04-30 21:44 39.08116 26.16502 26485 ft 443 kts 316°
2026-04-30 21:44 39.10630 26.13769 26927 ft 445 kts 316°
2026-04-30 21:45 39.13209 26.10963 27331 ft 447 kts 316°
2026-04-30 21:45 39.15732 26.08218 27567 ft 452 kts 316°
2026-04-30 21:45 39.18235 26.05491 27992 ft 453 kts 316°
2026-04-30 21:45 39.20708 26.02789 28688 ft 448 kts 316°
2026-04-30 21:46 39.23075 26.00202 29272 ft 444 kts 315°
2026-04-30 21:46 39.25483 25.97568 29912 ft 439 kts 316°
2026-04-30 21:46 39.27844 25.94978 30462 ft 436 kts 316°
2026-04-30 21:46 39.30241 25.92346 30975 ft 433 kts 316°
2026-04-30 21:47 39.32582 25.89773 31501 ft 430 kts 315°
2026-04-30 21:47 39.34874 25.87254 31923 ft 429 kts 315°
2026-04-30 21:47 39.37292 25.84594 32349 ft 428 kts 315°
2026-04-30 21:47 39.39677 25.81967 32743 ft 427 kts 315°
2026-04-30 21:48 39.42058 25.79341 33126 ft 426 kts 315°
2026-04-30 21:48 39.44517 25.76627 33572 ft 424 kts 315°
2026-04-30 21:48 39.46810 25.74093 33924 ft 424 kts 315°
2026-04-30 21:48 39.49095 25.71567 34266 ft 423 kts 315°
2026-04-30 21:49 39.51375 25.69044 34652 ft 421 kts 315°
2026-04-30 21:49 39.53643 25.66535 34963 ft 419 kts 315°
2026-04-30 21:49 39.55894 25.64040 35162 ft 421 kts 315°
2026-04-30 21:49 39.58158 25.61526 35448 ft 419 kts 315°
2026-04-30 21:50 39.60433 25.58998 35725 ft 418 kts 314°
2026-04-30 21:50 39.62696 25.56481 35959 ft 418 kts 315°
2026-04-30 21:50 39.64970 25.53952 36200 ft 417 kts 315°
2026-04-30 21:50 39.67182 25.51489 36454 ft 416 kts 315°
2026-04-30 21:51 39.69411 25.49006 36706 ft 416 kts 315°
2026-04-30 21:51 39.71660 25.46497 36988 ft 414 kts 315°
2026-04-30 21:51 39.73911 25.43985 37187 ft 415 kts 315°
2026-04-30 21:51 39.76143 25.41490 37373 ft 415 kts 315°
2026-04-30 21:52 39.78359 25.39010 37564 ft 415 kts 315°
2026-04-30 21:52 39.80538 25.36572 37820 ft 413 kts 315°
2026-04-30 21:52 39.82752 25.34092 38031 ft 413 kts 314°
2026-04-30 21:52 39.84961 25.31614 38085 ft 414 kts 314°
2026-04-30 21:53 39.89385 25.26598 38103 ft 413 kts 312°
2026-04-30 21:53 39.93352 25.21057 38097 ft 407 kts 304°
2026-04-30 21:54 39.96737 25.15099 38118 ft 406 kts 301°
2026-04-30 21:54 40.00030 25.08978 38107 ft 405 kts 301°
2026-04-30 21:55 40.03285 25.02919 38098 ft 403 kts 301°
2026-04-30 21:55 40.06556 24.96839 38110 ft 403 kts 301°
2026-04-30 21:56 40.09839 24.90737 38128 ft 405 kts 301°
2026-04-30 21:56 40.13153 24.84577 38106 ft 402 kts 301°
2026-04-30 21:57 40.16403 24.78521 38132 ft 403 kts 301°
2026-04-30 21:57 40.19659 24.72445 38116 ft 403 kts 301°
2026-04-30 21:58 40.22922 24.66346 38120 ft 404 kts 301°
2026-04-30 21:58 40.26202 24.60205 38151 ft 403 kts 301°
2026-04-30 21:59 40.29501 24.54009 38139 ft 404 kts 301°
2026-04-30 22:00 40.34486 24.44622 38134 ft 406 kts 302°
2026-04-30 22:00 40.39486 24.35188 38135 ft 404 kts 301°
2026-04-30 22:01 40.42895 24.28742 38112 ft 402 kts 301°
2026-04-30 22:01 40.46236 24.22414 38130 ft 402 kts 301°
2026-04-30 22:02 40.49671 24.15894 38128 ft 402 kts 301°
2026-04-30 22:02 40.53064 24.09439 38160 ft 403 kts 301°
2026-04-30 22:03 40.56665 24.02577 38148 ft 402 kts 301°
2026-04-30 22:03 40.60261 23.95697 38142 ft 400 kts 301°
2026-04-30 22:04 40.63855 23.88799 38149 ft 402 kts 301°
2026-04-30 22:05 40.69202 23.78511 38153 ft 403 kts 301°
2026-04-30 22:05 40.72774 23.71621 38161 ft 403 kts 301°
2026-04-30 22:06 40.76357 23.64700 38139 ft 401 kts 301°
2026-04-30 22:06 40.81641 23.54463 38158 ft 402 kts 301°
2026-04-30 22:07 40.85158 23.47633 38142 ft 401 kts 301°
2026-04-30 22:07 40.88665 23.40801 38154 ft 400 kts 301°
2026-04-30 22:08 40.92003 23.34287 38141 ft 400 kts 300°
2026-04-30 22:08 40.95444 23.27562 38136 ft 401 kts 300°
2026-04-30 22:09 40.98871 23.20847 38132 ft 402 kts 301°
2026-04-30 22:09 41.02395 23.13920 38125 ft 402 kts 300°
2026-04-30 22:10 41.05860 23.07098 38147 ft 402 kts 300°
2026-04-30 22:10 41.09277 23.00372 38148 ft 402 kts 301°
2026-04-30 22:11 41.14842 22.91147 38163 ft 406 kts 307°
2026-04-30 22:12 41.18787 22.85103 38188 ft 407 kts 307°
2026-04-30 22:12 41.22623 22.79150 38180 ft 407 kts 306°
2026-04-30 22:13 41.26513 22.73115 38191 ft 408 kts 308°
2026-04-30 22:13 41.30860 22.66774 38202 ft 409 kts 308°
2026-04-30 22:14 41.35229 22.60456 38191 ft 412 kts 309°
2026-04-30 22:14 41.39582 22.54100 38185 ft 411 kts 308°
2026-04-30 22:15 41.43972 22.47663 38172 ft 412 kts 309°
2026-04-30 22:15 41.48347 22.41217 38162 ft 411 kts 309°
2026-04-30 22:16 41.52653 22.34856 38199 ft 414 kts 308°
2026-04-30 22:17 41.61225 22.22160 38198 ft 413 kts 308°
2026-04-30 22:17 41.67708 22.12518 38222 ft 415 kts 308°
2026-04-30 22:18 41.74233 22.02782 38223 ft 415 kts 308°
2026-04-30 22:19 41.80709 21.93085 38233 ft 416 kts 309°
2026-04-30 22:20 41.87231 21.83283 38244 ft 417 kts 308°
2026-04-30 22:20 41.93692 21.73540 38250 ft 417 kts 308°
2026-04-30 22:21 41.98008 21.67015 38255 ft 417 kts 309°
2026-04-30 22:21 42.02306 21.60506 38256 ft 418 kts 309°
2026-04-30 22:22 42.06577 21.54029 38253 ft 419 kts 309°
2026-04-30 22:22 42.10813 21.47584 38247 ft 420 kts 309°
2026-04-30 22:23 42.15158 21.40964 38235 ft 419 kts 309°
2026-04-30 22:23 42.19432 21.34332 38234 ft 417 kts 308°
2026-04-30 22:24 42.23677 21.27574 38245 ft 419 kts 308°
2026-04-30 22:24 42.27902 21.20830 38249 ft 419 kts 308°
2026-04-30 22:25 42.32112 21.14108 38237 ft 418 kts 308°
2026-04-30 22:25 42.36363 21.07315 38238 ft 419 kts 308°
2026-04-30 22:26 42.42757 20.97075 38239 ft 419 kts 308°
2026-04-30 22:27 42.47010 20.90244 38250 ft 419 kts 308°
2026-04-30 22:27 42.53341 20.80052 38257 ft 420 kts 308°
2026-04-30 22:28 42.59679 20.69812 38267 ft 421 kts 308°
2026-04-30 22:29 42.68003 20.56302 38271 ft 420 kts 309°
2026-04-30 22:31 42.82255 20.33046 38187 ft 422 kts 308°
2026-04-30 22:32 42.91792 20.17376 38185 ft 421 kts 308°
2026-04-30 22:33 43.01372 20.01553 38218 ft 424 kts 308°
2026-04-30 22:35 43.11776 19.84271 38257 ft 422 kts 308°
2026-04-30 22:36 43.22209 19.66831 38256 ft 423 kts 309°
2026-04-30 22:37 43.30494 19.52916 38234 ft 424 kts 309°
2026-04-30 22:38 43.38664 19.39124 38242 ft 425 kts 309°
2026-04-30 22:39 43.44864 19.28621 38249 ft 425 kts 308°
2026-04-30 22:40 43.55852 19.06421 38283 ft 427 kts 295°
2026-04-30 22:41 43.62314 18.86107 38272 ft 428 kts 295°
2026-04-30 22:43 43.70364 18.60778 38251 ft 428 kts 295°
2026-04-30 22:44 43.75754 18.43707 38244 ft 429 kts 295°
2026-04-30 22:45 43.83731 18.18250 38264 ft 430 kts 295°
2026-04-30 22:47 43.91663 17.92687 38281 ft 430 kts 295°
2026-04-30 22:48 43.96889 17.75699 38256 ft 430 kts 295°
2026-04-30 22:49 44.04697 17.50118 38285 ft 431 kts 295°
2026-04-30 22:51 44.12157 17.25436 38244 ft 433 kts 295°
2026-04-30 22:52 44.15679 17.13699 38244 ft 434 kts 295°
2026-04-30 22:53 44.20762 16.96667 38276 ft 432 kts 295°
2026-04-30 22:53 44.24584 16.83778 38263 ft 434 kts 295°
2026-04-30 22:55 44.31042 16.61863 38257 ft 435 kts 295°
2026-04-30 22:56 44.36214 16.44161 38258 ft 436 kts 295°
2026-04-30 22:57 44.42573 16.22228 38234 ft 435 kts 294°
2026-04-30 22:58 44.47566 16.04635 38256 ft 436 kts 294°
2026-04-30 22:59 44.54796 15.78070 38264 ft 435 kts 294°